This is the latest recevied weather packets stored in our database for station/object DC3YC-13. If no packets are shown the sender has not sent any weather packets the latest 1 day(s).
| Time | Temp. | Humidity | Pressure | Rain* | Wind** | Luminosity | Snow |
|---|---|---|---|---|---|---|---|
| 1777991193 | 22.22° C | 49% | 1002.7 hPa | 0 mm | 1.79 m/s, 355° | - | - |
| 1777990593 | 22.78° C | 47% | 1002.7 hPa | 0 mm | 4.92 m/s, 355° | - | - |
| 1777989993 | 22.78° C | 43% | 1002.7 hPa | 0 mm | 0.89 m/s, 355° | - | - |
| 1777989393 | 23.89° C | 43% | 1003.8 hPa | 0 mm | 0.45 m/s, 355° | - | - |
| 1777988793 | 22.78° C | 43% | 1003.8 hPa | 0 mm | 0.89 m/s, 355° | - | - |
| 1777988193 | 22.78° C | 43% | 1003.8 hPa | 0 mm | 0 m/s | - | - |
| 1777987593 | 23.89° C | 41% | 1003.8 hPa | 0 mm | 1.79 m/s, 355° | - | - |
| 1777986993 | 25° C | 39% | 1003.8 hPa | 0 mm | 2.24 m/s, 355° | - | - |
| 1777986393 | 25° C | 39% | 1003.8 hPa | 0 mm | 2.24 m/s, 355° | - | - |
| 1777985793 | 26.11° C | 38% | 1003.8 hPa | 0 mm | 0.45 m/s, 355° | - | - |
| 1777985193 | 26.11° C | 37% | 1003.8 hPa | 0 mm | 3.58 m/s, 355° | - | - |
| 1777984593 | 26.11° C | 39% | 1003.8 hPa | 0 mm | 2.68 m/s, 355° | - | - |
| 1777983993 | 25° C | 40% | 1003.8 hPa | 0 mm | 0 m/s | - | - |
| 1777983393 | 23.89° C | 40% | 1003.8 hPa | 0 mm | 0.89 m/s, 355° | - | - |
| 1777982793 | 25° C | 39% | 1003.8 hPa | 0 mm | 2.24 m/s, 355° | - | - |
| 1777982193 | 26.11° C | 37% | 1003.8 hPa | 0 mm | 3.13 m/s, 355° | - | - |
| 1777981593 | 26.11° C | 37% | 1003.8 hPa | 0 mm | 4.02 m/s, 355° | - | - |
| 1777980993 | 27.22° C | 36% | 1004.8 hPa | 0 mm | 1.79 m/s, 350° | - | - |
| 1777980393 | 26.11° C | 38% | 1004.8 hPa | 0 mm | 0.89 m/s, 350° | - | - |
| 1777979793 | 26.11° C | 36% | 1004.8 hPa | 0 mm | 0.45 m/s, 355° | - | - |
| 1777979193 | 26.11° C | 37% | 1004.9 hPa | 0 mm | 3.58 m/s, 355° | - | - |
| 1777978593 | 26.11° C | 40% | 1004.9 hPa | 0 mm | 0.45 m/s, 355° | - | - |
| 1777977993 | 25° C | 39% | 1004.9 hPa | 0 mm | 1.79 m/s, 355° | - | - |
| 1777977393 | 25° C | 41% | 1004.9 hPa | 0 mm | 4.02 m/s, 355° | - | - |
| 1777976793 | 26.11° C | 42% | 1004.9 hPa | 0 mm | 2.68 m/s, 355° | - | - |
* Rain latest hour (hover to see other rain measurements)
** Current wind speed in m/s (hover to see current wind gust speed)